Time,TemperatureF,DewpointF,PressureIn,WindDirection,WindDirectionDegrees,WindSpeedMPH,WindSpeedGustMPH,Humidity,HourlyPrecipIn,Conditions,Clouds,dailyrainin,SoftwareType,DateUTC
2013-06-13 00:02:00,71.0,55.0,-100.00,SSE,155,6.0,16.0,56,0.00,,,-99.99,,2013-06-13 06:02:00,
2013-06-13 00:11:00,71.0,55.0,-100.00,South,180,4.0,12.0,57,0.00,,,-99.99,,2013-06-13 06:11:00,
2013-06-13 00:22:00,70.0,56.0,-100.00,South,175,9.0,13.0,59,0.00,,,-99.99,,2013-06-13 06:22:00,
2013-06-13 00:33:00,70.0,56.0,-100.00,SSW,205,7.0,12.0,60,0.00,,,-99.99,,2013-06-13 06:33:00,
2013-06-13 00:44:00,69.0,56.0,-100.00,SSW,200,6.0,12.0,63,0.00,,,-99.99,,2013-06-13 06:44:00,
2013-06-13 00:52:00,69.0,56.0,-100.00,South,170,4.0,10.0,64,0.00,,,-99.99,,2013-06-13 06:52:00,
2013-06-13 01:01:00,68.0,56.0,-100.00,South,175,3.0,11.0,66,0.00,,,-99.99,,2013-06-13 07:01:00,
2013-06-13 01:11:00,68.0,56.0,-100.00,South,175,7.0,12.0,67,0.00,,,-99.99,,2013-06-13 07:11:00,
2013-06-13 01:22:00,67.0,57.0,-100.00,SSW,205,4.0,11.0,69,0.00,,,-99.99,,2013-06-13 07:22:00,
2013-06-13 01:33:00,67.0,57.0,-100.00,South,180,7.0,11.0,70,0.00,,,-99.99,,2013-06-13 07:33:00,
2013-06-13 01:42:00,66.0,57.0,-100.00,South,170,5.0,12.0,73,0.00,,,-99.99,,2013-06-13 07:42:00,
2013-06-13 01:52:00,65.0,57.0,-100.00,SSE,155,6.0,11.0,74,0.00,,,-99.99,,2013-06-13 07:52:00,
2013-06-13 02:01:00,65.0,57.0,-100.00,SSE,165,6.0,11.0,75,0.00,,,-99.99,,2013-06-13 08:01:00,
2013-06-13 02:11:00,64.0,57.0,-100.00,South,170,5.0,12.0,76,0.00,,,-99.99,,2013-06-13 08:11:00,
2013-06-13 02:22:00,64.0,57.0,-100.00,SSW,195,4.0,7.0,77,0.00,,,-99.99,,2013-06-13 08:22:00,
2013-06-13 02:32:00,64.0,57.0,-100.00,SSE,150,5.0,8.0,79,0.00,,,-99.99,,2013-06-13 08:32:00,
2013-06-13 02:42:00,63.0,57.0,-100.00,SE,140,4.0,9.0,79,0.00,,,-99.99,,2013-06-13 08:42:00,
2013-06-13 02:52:00,63.0,57.0,-100.00,ESE,120,2.0,7.0,80,0.00,,,-99.99,,2013-06-13 08:52:00,
2013-06-13 03:01:00,63.0,57.0,-100.00,SE,145,5.0,7.0,81,0.00,,,-99.99,,2013-06-13 09:01:00,
2013-06-13 03:11:00,63.0,57.0,-100.00,SE,145,3.0,7.0,81,0.00,,,-99.99,,2013-06-13 09:11:00,
2013-06-13 03:22:00,62.0,57.0,-100.00,SSE,160,3.0,8.0,81,0.00,,,-99.99,,2013-06-13 09:22:00,
2013-06-13 03:32:00,62.0,57.0,-100.00,SSW,200,3.0,7.0,81,0.00,,,-99.99,,2013-06-13 09:32:00,
2013-06-13 03:42:00,63.0,57.0,-100.00,SSW,210,4.0,7.0,81,0.00,,,-99.99,,2013-06-13 09:42:00,
2013-06-13 03:52:00,63.0,57.0,-100.00,SSW,200,6.0,7.0,80,0.00,,,-99.99,,2013-06-13 09:52:00,
2013-06-13 04:01:00,62.0,56.0,-100.00,SSW,205,6.0,9.0,82,0.00,,,-99.99,,2013-06-13 10:01:00,
2013-06-13 04:11:00,61.0,56.0,-100.00,SSW,200,2.0,7.0,84,0.00,,,-99.99,,2013-06-13 10:11:00,
2013-06-13 04:22:00,60.0,56.0,-100.00,SSE,160,5.0,9.0,85,0.00,,,-99.99,,2013-06-13 10:22:00,
2013-06-13 04:33:00,60.0,56.0,-100.00,SSW,195,6.0,7.0,87,0.00,,,-99.99,,2013-06-13 10:33:00,
2013-06-13 04:42:00,60.0,56.0,-100.00,South,175,3.0,7.0,87,0.00,,,-99.99,,2013-06-13 10:42:00,
2013-06-13 04:53:00,60.0,56.0,-100.00,SSE,155,1.0,6.0,87,0.00,,,-99.99,,2013-06-13 10:53:00,
2013-06-13 05:02:00,60.0,56.0,-100.00,SSE,165,3.0,6.0,87,0.00,,,-99.99,,2013-06-13 11:02:00,
2013-06-13 05:11:00,60.0,56.0,-100.00,SSE,150,4.0,6.0,88,0.00,,,-99.99,,2013-06-13 11:11:00,
2013-06-13 05:23:00,59.0,56.0,-100.00,SSE,150,4.0,7.0,88,0.00,,,-99.99,,2013-06-13 11:23:00,
2013-06-13 05:32:00,59.0,56.0,-100.00,SSE,160,4.0,7.0,89,0.00,,,-99.99,,2013-06-13 11:32:00,
2013-06-13 05:42:00,59.0,56.0,-100.00,SSW,195,4.0,7.0,89,0.00,,,-99.99,,2013-06-13 11:42:00,
2013-06-13 05:52:00,58.0,56.0,-100.00,South,190,6.0,7.0,90,0.00,,,-99.99,,2013-06-13 11:52:00,
2013-06-13 06:01:00,58.0,56.0,-100.00,South,180,6.0,9.0,91,0.00,,,-99.99,,2013-06-13 12:01:00,
2013-06-13 06:11:00,58.0,56.0,-100.00,SW,220,4.0,9.0,91,0.00,,,-99.99,,2013-06-13 12:11:00,
2013-06-13 06:22:00,58.0,56.0,-100.00,SW,220,4.0,5.0,92,0.00,,,-99.99,,2013-06-13 12:22:00,
2013-06-13 06:34:00,58.0,56.0,-100.00,WSW,250,3.0,4.0,92,0.00,,,-99.99,,2013-06-13 12:34:00,
2013-06-13 06:42:00,58.0,56.0,-100.00,SSW,200,1.0,5.0,92,0.00,,,-99.99,,2013-06-13 12:42:00,
2013-06-13 06:52:00,58.0,56.0,-100.00,SSE,150,2.0,3.0,92,0.00,,,-99.99,,2013-06-13 12:52:00,
2013-06-13 07:01:00,58.0,56.0,-100.00,ESE,105,2.0,4.0,92,0.00,,,-99.99,,2013-06-13 13:01:00,
2013-06-13 07:11:00,58.0,56.0,-100.00,ESE,115,3.0,5.0,91,0.00,,,-99.99,,2013-06-13 13:11:00,
2013-06-13 07:21:00,59.0,56.0,-100.00,South,185,4.0,7.0,91,0.00,,,-99.99,,2013-06-13 13:21:00,
2013-06-13 07:32:00,58.0,56.0,-100.00,SSE,165,3.0,7.0,91,0.00,,,-99.99,,2013-06-13 13:32:00,
2013-06-13 07:43:00,58.0,56.0,-100.00,SSE,155,4.0,6.0,91,0.00,,,-99.99,,2013-06-13 13:43:00,
2013-06-13 07:53:00,58.0,56.0,-100.00,SSW,200,4.0,6.0,91,0.00,,,-99.99,,2013-06-13 13:53:00,
2013-06-13 08:02:00,59.0,56.0,-100.00,South,180,2.0,6.0,90,0.00,,,-99.99,,2013-06-13 14:02:00,
2013-06-13 08:11:00,59.0,56.0,-100.00,South,185,5.0,7.0,89,0.00,,,-99.99,,2013-06-13 14:11:00,
2013-06-13 08:22:00,59.0,56.0,-100.00,SSW,210,4.0,6.0,89,0.00,,,-99.99,,2013-06-13 14:22:00,
2013-06-13 08:33:00,59.0,56.0,-100.00,SSE,160,4.0,7.0,89,0.00,,,-99.99,,2013-06-13 14:33:00,
2013-06-13 08:43:00,59.0,56.0,-100.00,South,185,5.0,7.0,87,0.00,,,-99.99,,2013-06-13 14:43:00,
2013-06-13 08:53:00,60.0,56.0,-100.00,South,190,3.0,8.0,86,0.00,,,-99.99,,2013-06-13 14:53:00,
2013-06-13 09:01:00,60.0,56.0,-100.00,SW,215,4.0,9.0,86,0.00,,,-99.99,,2013-06-13 15:01:00,
2013-06-13 09:12:00,60.0,56.0,-100.00,West,280,5.0,8.0,84,0.00,,,-99.99,,2013-06-13 15:12:00,
2013-06-13 09:22:00,60.0,55.0,-100.00,West,265,6.0,8.0,84,0.00,,,-99.99,,2013-06-13 15:22:00,
2013-06-13 09:33:00,60.0,55.0,-100.00,WSW,255,3.0,6.0,84,0.00,,,-99.99,,2013-06-13 15:33:00,
2013-06-13 09:43:00,60.0,55.0,-100.00,WSW,255,3.0,6.0,84,0.00,,,-99.99,,2013-06-13 15:43:00,
2013-06-13 09:53:00,61.0,56.0,-100.00,SSW,200,3.0,4.0,83,0.00,,,-99.99,,2013-06-13 15:53:00,
2013-06-13 10:01:00,63.0,56.0,-100.00,East,80,1.0,6.0,79,0.00,,,-99.99,,2013-06-13 16:01:00,
2013-06-13 10:11:00,64.0,56.0,-100.00,NNW,340,1.0,3.0,76,0.00,,,-99.99,,2013-06-13 16:11:00,
2013-06-13 10:22:00,66.0,57.0,-100.00,WSW,255,1.0,4.0,73,0.00,,,-99.99,,2013-06-13 16:22:00,
2013-06-13 10:33:00,67.0,57.0,-100.00,SW,235,4.0,6.0,70,0.00,,,-99.99,,2013-06-13 16:33:00,
2013-06-13 10:43:00,67.0,56.0,-100.00,West,275,3.0,5.0,69,0.00,,,-99.99,,2013-06-13 16:43:00,
2013-06-13 10:53:00,67.0,57.0,-100.00,SSW,210,5.0,7.0,69,0.00,,,-99.99,,2013-06-13 16:53:00,
2013-06-13 11:02:00,67.0,56.0,-100.00,SW,225,2.0,7.0,68,0.00,,,-99.99,,2013-06-13 17:02:00,
2013-06-13 11:11:00,68.0,57.0,-100.00,West,265,3.0,7.0,66,0.00,,,-99.99,,2013-06-13 17:11:00,
2013-06-13 11:24:00,68.0,57.0,-100.00,SW,230,5.0,7.0,67,0.00,,,-99.99,,2013-06-13 17:24:00,
2013-06-13 11:32:00,68.0,57.0,-100.00,West,260,4.0,7.0,67,0.00,,,-99.99,,2013-06-13 17:32:00,
2013-06-13 11:43:00,69.0,57.0,-100.00,WNW,300,3.0,7.0,64,0.00,,,-99.99,,2013-06-13 17:43:00,
2013-06-13 11:53:00,70.0,57.0,-100.00,SSE,165,2.0,6.0,64,0.00,,,-99.99,,2013-06-13 17:53:00,
2013-06-13 12:02:00,69.0,57.0,-100.00,West,265,4.0,6.0,65,0.00,,,-99.99,,2013-06-13 18:02:00,
2013-06-13 12:11:00,69.0,57.0,-100.00,WSW,250,4.0,7.0,65,0.00,,,-99.99,,2013-06-13 18:11:00,
2013-06-13 12:22:00,71.0,58.0,-100.00,SW,215,4.0,6.0,63,0.00,,,-99.99,,2013-06-13 18:22:00,
2013-06-13 12:33:00,72.0,58.0,-100.00,South,175,4.0,6.0,61,0.00,,,-99.99,,2013-06-13 18:33:00,
2013-06-13 12:43:00,72.0,58.0,-100.00,West,270,3.0,6.0,60,0.00,,,-99.99,,2013-06-13 18:43:00,
2013-06-13 12:52:00,74.0,58.0,-100.00,NE,35,2.0,6.0,58,0.00,,,-99.99,,2013-06-13 18:52:00,
2013-06-13 13:01:00,73.0,58.0,-100.00,SSE,165,2.0,6.0,59,0.00,,,-99.99,,2013-06-13 19:01:00,
2013-06-13 13:11:00,73.0,58.0,-100.00,West,265,4.0,7.0,59,0.00,,,-99.99,,2013-06-13 19:11:00,
2013-06-13 13:22:00,73.0,59.0,-100.00,South,175,3.0,8.0,60,0.00,,,-99.99,,2013-06-13 19:22:00,
2013-06-13 13:43:00,73.0,59.0,-100.00,SW,220,4.0,7.0,60,0.00,,,-99.99,,2013-06-13 19:43:00,
2013-06-13 13:53:00,73.0,58.0,-100.00,South,180,3.0,6.0,60,0.00,,,-99.99,,2013-06-13 19:53:00,
2013-06-13 14:01:00,72.0,58.0,-100.00,WSW,245,4.0,7.0,60,0.00,,,-99.99,,2013-06-13 20:01:00,
2013-06-13 14:11:00,73.0,58.0,-100.00,West,275,4.0,9.0,60,0.00,,,-99.99,,2013-06-13 20:11:00,
2013-06-13 14:22:00,75.0,59.0,-100.00,WSW,250,7.0,9.0,57,0.00,,,-99.99,,2013-06-13 20:22:00,
2013-06-13 14:32:00,76.0,59.0,-100.00,WSW,245,5.0,7.0,56,0.00,,,-99.99,,2013-06-13 20:32:00,
2013-06-13 14:43:00,76.0,59.0,-100.00,SSW,195,2.0,6.0,55,0.00,,,-99.99,,2013-06-13 20:43:00,
2013-06-13 14:53:00,75.0,59.0,-100.00,SW,235,1.0,4.0,56,0.00,,,-99.99,,2013-06-13 20:53:00,
2013-06-13 15:01:00,77.0,60.0,-100.00,SSE,160,3.0,6.0,54,0.00,,,-99.99,,2013-06-13 21:01:00,
2013-06-13 15:11:00,79.0,60.0,-100.00,SW,225,3.0,6.0,51,0.00,,,-99.99,,2013-06-13 21:11:00,
2013-06-13 15:22:00,79.0,60.0,-100.00,East,95,2.0,11.0,52,0.00,,,-99.99,,2013-06-13 21:22:00,
2013-06-13 15:34:00,79.0,60.0,-100.00,West,260,4.0,9.0,51,0.00,,,-99.99,,2013-06-13 21:34:00,
2013-06-13 15:43:00,81.0,60.0,-100.00,West,260,3.0,9.0,49,0.00,,,-99.99,,2013-06-13 21:43:00,
2013-06-13 15:52:00,78.0,59.0,-100.00,South,190,4.0,7.0,52,0.00,,,-99.99,,2013-06-13 21:52:00,
2013-06-13 16:01:00,76.0,58.0,-100.00,SE,145,1.0,7.0,53,0.00,,,-99.99,,2013-06-13 22:01:00,
2013-06-13 16:11:00,76.0,58.0,-100.00,SE,140,1.0,2.0,53,0.00,,,-99.99,,2013-06-13 22:11:00,
2013-06-13 16:22:00,78.0,59.0,-100.00,South,170,2.0,6.0,53,0.00,,,-99.99,,2013-06-13 22:22:00,
2013-06-13 16:32:00,80.0,60.0,-100.00,SSW,200,4.0,11.0,51,0.00,,,-99.99,,2013-06-13 22:32:00,
2013-06-13 16:42:00,82.0,61.0,-100.00,WNW,290,1.0,6.0,48,0.00,,,-99.99,,2013-06-13 22:42:00,
2013-06-13 16:52:00,83.0,61.0,-100.00,North,355,2.0,5.0,47,0.00,,,-99.99,,2013-06-13 22:52:00,
2013-06-13 17:01:00,81.0,60.0,-100.00,West,280,2.0,6.0,48,0.00,,,-99.99,,2013-06-13 23:01:00,
2013-06-13 17:11:00,81.0,60.0,-100.00,SSE,150,3.0,4.0,49,0.00,,,-99.99,,2013-06-13 23:11:00,
2013-06-13 17:22:00,82.0,60.0,-100.00,SSW,205,2.0,6.0,48,0.00,,,-99.99,,2013-06-13 23:22:00,
2013-06-13 17:32:00,82.0,60.0,-100.00,West,260,3.0,6.0,47,0.00,,,-99.99,,2013-06-13 23:32:00,
2013-06-13 17:43:00,82.0,60.0,-100.00,West,275,2.0,5.0,47,0.00,,,-99.99,,2013-06-13 23:43:00,
2013-06-13 17:52:00,81.0,59.0,-100.00,South,185,2.0,5.0,47,0.00,,,-99.99,,2013-06-13 23:52:00,
2013-06-13 18:01:00,79.0,59.0,-100.00,NNE,25,1.0,4.0,49,0.00,,,-99.99,,2013-06-14 00:01:00,
2013-06-13 18:11:00,78.0,62.0,-100.00,West,275,2.0,6.0,59,0.10,,,-99.99,,2013-06-14 00:11:00,
2013-06-13 18:22:00,75.0,66.0,-100.00,North,355,4.0,6.0,74,0.00,,,-99.99,,2013-06-14 00:22:00,
2013-06-13 18:33:00,73.0,63.0,-100.00,NNE,15,6.0,15.0,72,0.00,,,-99.99,,2013-06-14 00:33:00,
2013-06-13 18:43:00,73.0,65.0,-100.00,NNW,330,3.0,9.0,75,0.10,,,-99.99,,2013-06-14 00:43:00,
2013-06-13 18:53:00,73.0,67.0,-100.00,WSW,250,2.0,3.0,80,0.00,,,-99.99,,2013-06-14 00:53:00,
2013-06-13 19:01:00,73.0,65.0,-100.00,East,85,5.0,8.0,77,0.00,,,-99.99,,2013-06-14 01:01:00,
2013-06-13 19:11:00,74.0,65.0,-100.00,NNE,15,2.0,7.0,73,0.00,,,-99.99,,2013-06-14 01:11:00,
2013-06-13 19:22:00,75.0,65.0,-100.00,North,350,4.0,6.0,70,0.00,,,-99.99,,2013-06-14 01:22:00,
2013-06-13 19:32:00,75.0,65.0,-100.00,NE,55,1.0,6.0,70,0.00,,,-99.99,,2013-06-14 01:32:00,
2013-06-13 19:43:00,74.0,64.0,-100.00,NE,55,5.0,6.0,71,0.00,,,-99.99,,2013-06-14 01:43:00,
2013-06-13 19:52:00,73.0,61.0,-100.00,NE,40,4.0,7.0,67,0.00,,,-99.99,,2013-06-14 01:52:00,
2013-06-13 20:02:00,73.0,61.0,-100.00,North,5,0.0,5.0,66,0.00,,,-99.99,,2013-06-14 02:02:00,
2013-06-13 20:11:00,72.0,60.0,-100.00,East,95,2.0,2.0,66,0.00,,,-99.99,,2013-06-14 02:11:00,
2013-06-13 20:22:00,71.0,59.0,-100.00,North,10,0.0,2.0,66,0.00,,,-99.99,,2013-06-14 02:22:00,
2013-06-13 20:32:00,70.0,59.0,-100.00,NNE,30,1.0,6.0,67,0.00,,,-99.99,,2013-06-14 02:32:00,
2013-06-13 20:43:00,70.0,58.0,-100.00,SE,125,2.0,4.0,67,0.00,,,-99.99,,2013-06-14 02:43:00,
2013-06-13 20:52:00,70.0,58.0,-100.00,ENE,60,2.0,4.0,67,0.00,,,-99.99,,2013-06-14 02:52:00,
2013-06-13 21:02:00,69.0,58.0,-100.00,East,90,4.0,5.0,67,0.00,,,-99.99,,2013-06-14 03:02:00,
2013-06-13 21:11:00,69.0,57.0,-100.00,ESE,120,4.0,6.0,66,0.00,,,-99.99,,2013-06-14 03:11:00,
2013-06-13 21:22:00,69.0,56.0,-100.00,ESE,115,2.0,5.0,64,0.00,,,-99.99,,2013-06-14 03:22:00,
2013-06-13 21:34:00,69.0,56.0,-100.00,East,95,1.0,4.0,64,0.00,,,-99.99,,2013-06-14 03:34:00,
2013-06-13 21:43:00,68.0,56.0,-100.00,East,85,2.0,4.0,66,0.00,,,-99.99,,2013-06-14 03:43:00,
2013-06-13 21:52:00,68.0,56.0,-100.00,East,85,1.0,4.0,66,0.00,,,-99.99,,2013-06-14 03:52:00,
2013-06-13 22:01:00,67.0,55.0,-100.00,ENE,70,2.0,4.0,65,0.00,,,-99.99,,2013-06-14 04:01:00,
2013-06-13 22:12:00,67.0,55.0,-100.00,NNE,25,0.0,3.0,65,0.00,,,-99.99,,2013-06-14 04:12:00,
2013-06-13 22:22:00,67.0,55.0,-100.00,SW,225,2.0,4.0,65,0.00,,,-99.99,,2013-06-14 04:22:00,
2013-06-13 22:33:00,67.0,55.0,-100.00,SW,225,2.0,4.0,65,0.00,,,-99.99,,2013-06-14 04:33:00,
2013-06-13 22:43:00,69.0,54.0,-100.00,SE,130,4.0,11.0,59,0.00,,,-99.99,,2013-06-14 04:43:00,
2013-06-13 22:53:00,69.0,55.0,-100.00,SE,130,4.0,7.0,59,0.00,,,-99.99,,2013-06-14 04:53:00,
2013-06-13 23:02:00,70.0,54.0,-100.00,SSE,150,8.0,12.0,56,0.00,,,-99.99,,2013-06-14 05:02:00,
2013-06-13 23:11:00,69.0,54.0,-100.00,SSE,165,6.0,10.0,57,0.00,,,-99.99,,2013-06-14 05:11:00,
2013-06-13 23:22:00,69.0,53.0,-100.00,SSE,150,4.0,8.0,57,0.00,,,-99.99,,2013-06-14 05:22:00,
2013-06-13 23:33:00,68.0,53.0,-100.00,North,355,2.0,4.0,58,0.00,,,-99.99,,2013-06-14 05:33:00,
2013-06-13 23:43:00,67.0,53.0,-100.00,SE,130,3.0,6.0,59,0.00,,,-99.99,,2013-06-14 05:43:00,
2013-06-13 23:52:00,66.0,52.0,-100.00,SSW,210,2.0,4.0,61,0.00,,,-99.99,,2013-06-14 05:52:00,